Wind_Speed
19 16 15 13 10 8 9 9 9 10 15 18 18 17 17 16 17 16 15 13 12 10 10 9 8 8 7 6 5 4 3 3 2 2 1 1 1 1 1 1 1 2 3
18 16 15 13 10 8 8 9 9 10 14 15 17 17 17 16 16 15 15 14 13 11 10 10 9 9 8 7 6 5 4 3 2 2 1 2 1 1 2 2 2 2 3
17 16 15 13 10 8 8 8 9 10 13 14 16 16 16 16 15 15 15 15 14 13 11 10 10 10 9 8 7 6 5 4 3 2 2 2 2 2 2 2 2 3 3
17 16 15 13 10 9 8 8 9 11 12 14 15 16 16 16 15 15 15 15 15 14 13 11 11 10 9 9 8 7 6 5 5 4 4 3 3 3 3 3 4 4 4
17 16 15 13 11 9 8 8 8 11 12 14 15 16 16 16 16 16 16 16 15 15 14 13 12 11 10 10 9 8 8 7 6 6 6 6 6 6 6 6 6 6 6
16 15 14 13 11 9 8 7 8 10 12 14 15 16 17 17 16 16 17 17 16 15 15 14 13 12 12 12 11 10 10 9 8 8 8 8 9 9 9 9 9 9 10
16 14 13 12 11 10 8 6 7 9 11 13 15 15 17 17 17 17 16 16 16 15 14 14 14 14 14 13 12 12 12 11 11 11 11 11 12 12 12 12 13 13 13
15 13 13 13 11 9 7 5 6 7 9 12 14 15 15 16 16 16 16 16 15 15 15 15 14 14 15 14 14 14 14 14 14 14 14 14 14 15 15 16 16 16 16
14 13 12 11 10 8 6 5 5 7 9 10 13 14 15 16 16 16 16 16 16 15 15 15 15 15 15 16 16 15 15 16 16 16 16 17 17 18 19 19 20 20 20
13 12 11 10 10 8 6 4 4 5 8 10 12 14 15 16 15 16 15 15 16 16 16 16 16 16 16 16 17 17 17 18 18 18 19 20 20 20 21 22 23 23 24
13 11 10 9 8 8 7 4 3 4 6 8 11 12 13 15 15 15 16 16 17 16 17 16 16 16 16 16 17 18 18 19 20 20 22 22 23 23 24 25 26 27 27
13 11 9 9 8 7 6 4 3 2 4 6 8 10 12 14 16 15 15 16 16 16 16 16 16 16 17 17 18 18 19 20 21 23 24 25 26 26 27 28 29 30 31
13 12 10 9 8 7 6 5 3 2 2 4 5 6 9 12 14 15 15 16 17 17 17 16 17 17 18 18 19 20 21 21 23 24 25 26 27 28 29 31 32 33 33
13 13 11 10 9 8 6 5 4 4 3 3 5 7 8 10 13 14 15 15 16 17 17 18 18 19 20 20 21 22 22 23 24 25 27 28 28 30 31 32 33 35 36
15 14 13 12 10 9 8 7 6 5 5 5 6 7 9 11 12 13 15 16 16 17 19 19 19 20 21 22 23 23 24 25 26 27 28 29 31 32 34 35 36 37 38
16 15 14 13 12 11 10 9 8 8 8 7 8 8 9 11 12 14 15 15 17 19 20 21 21 21 21 22 23 24 25 26 27 28 30 31 31 33 35 37 38 39 40
19 17 15 14 14 13 13 12 11 11 11 10 10 10 11 12 14 15 16 17 18 19 20 21 21 22 23 23 25 26 28 28 29 30 31 32 34 35 36 38 39 41 42
21 20 18 16 16 15 15 15 14 13 13 12 13 13 13 14 15 16 17 18 19 20 20 21 22 23 24 26 27 28 29 31 32 33 34 35 37 39 40 41 42 43 45
24 23 20 19 18 17 17 16 15 15 15 15 15 15 16 16 17 18 19 20 21 22 23 24 24 25 26 27 29 31 32 34 35 36 38 39 41 42 43 44 46 47 48
28 26 24 22 21 20 19 18 18 18 18 18 18 18 19 19 20 20 21 22 23 24 25 26 27 27 28 29 31 33 35 36 38 39 41 42 43 45 46 47 49 50 51
31 29 27 25 24 23 22 21 21 21 20 20 20 21 21 21 22 22 23 23 24 25 26 27 28 29 31 32 34 36 37 39 40 42 43 45 46 48 49 50 52 53 54
34 32 30 29 28 26 25 24 24 24 23 23 24 24 24 25 25 25 26 26 27 28 29 30 31 32 33 35 36 37 39 41 43 45 46 48 50 51 52 53 54 55 56
35 34 33 32 30 29 28 27 27 27 27 27 27 27 28 28 28 28 29 30 31 31 32 32 34 34 35 37 38 40 41 43 46 47 49 51 52 53 54 55 56 56 56
35 34 33 33 32 31 31 31 30 30 29 30 30 30 30 30 30 31 31 32 34 35 35 35 36 37 38 40 41 42 44 45 47 49 51 52 53 54 56 57 57 57 57
34 33 33 33 33 32 32 32 32 32 32 32 32 32 31 31 31 32 33 34 35 35 35 37 38 39 40 41 43 45 46 47 49 51 52 53 54 55 56 57 57 57 57
32 32 32 33 33 33 33 33 34 34 34 34 33 32 32 32 32 33 34 34 34 35 36 38 39 40 41 43 45 47 49 50 50 52 53 54 55 55 56 55 55 55 54
Wind_Direction
331 329 328 324 314 290 271 266 262 243 224 218 217 213 207 209 211 211 212 213 212 214 218 221 213 207 206 204 200 199 195 188 189 198 215 243 278 320 349 4 11 15 12
332 331 327 327 317 300 286 273 258 235 222 216 213 209 208 209 211 210 213 213 213 216 217 217 213 211 211 211 210 208 204 205 209 222 240 250 271 295 313 325 339 345 350
331 333 331 330 322 308 291 280 254 232 216 208 207 207 210 211 213 213 213 212 214 214 212 213 215 214 214 215 216 215 214 215 218 225 241 252 259 281 303 310 312 318 326
331 334 335 330 322 310 298 281 255 233 219 212 208 210 210 209 213 215 214 213 214 213 213 214 215 216 216 218 220 222 224 226 233 241 251 259 268 278 286 290 296 304 311
330 331 333 332 324 315 299 282 254 230 220 212 211 215 214 214 216 217 217 216 215 215 216 218 219 220 221 223 225 228 233 238 245 256 263 266 271 276 280 281 284 289 296
326 328 330 330 328 317 309 287 251 233 221 215 214 216 216 218 219 219 217 216 218 219 219 222 224 225 226 227 230 233 238 245 252 259 264 268 272 275 277 280 283 286 290
324 325 330 328 328 325 321 292 251 238 229 218 214 213 215 216 217 214 215 218 218 220 221 224 226 227 229 231 235 239 243 249 254 259 265 268 272 275 277 279 282 286 288
324 326 330 330 330 329 325 309 255 240 227 217 213 212 214 212 211 213 216 215 217 220 223 227 229 230 232 236 239 243 248 254 258 262 266 270 274 276 278 280 282 284 286
325 327 329 332 336 332 323 316 278 242 227 221 218 213 210 210 212 214 213 213 218 223 227 228 231 234 237 240 243 247 253 257 261 265 269 272 274 277 279 280 281 283 285
324 325 326 331 337 339 329 312 290 244 231 221 212 209 209 209 212 212 212 215 220 223 224 229 235 239 241 243 247 251 257 261 265 268 271 272 274 276 279 281 282 283 285
318 321 322 329 339 343 340 317 290 254 230 220 215 212 211 212 212 213 216 220 224 226 231 235 242 243 245 248 252 256 260 264 267 270 273 274 276 277 278 280 282 283 284
310 315 317 320 329 335 338 334 319 276 233 225 221 218 219 218 216 216 220 224 227 231 236 243 246 249 251 254 257 260 264 268 271 273 274 276 278 279 279 280 282 282 283
302 305 308 314 317 320 322 321 318 318 275 230 216 216 219 219 220 222 226 229 233 236 239 244 249 251 254 257 260 263 266 270 273 274 275 277 279 280 281 281 282 283 284
291 295 298 305 307 308 308 302 297 288 273 246 229 226 224 223 223 226 229 232 236 240 244 247 251 255 258 262 264 267 270 273 276 277 277 278 281 282 283 284 284 285 285
282 286 289 293 296 296 295 291 284 276 270 261 242 236 231 230 230 234 236 238 241 243 247 249 253 258 263 265 266 270 273 276 278 279 281 282 283 284 285 286 286 287 286
274 276 282 284 285 287 287 284 278 270 265 259 252 248 246 242 240 240 243 247 249 251 252 255 256 261 266 267 269 272 277 279 280 282 284 285 286 286 287 287 287 288 288
269 270 272 276 280 282 283 279 275 271 266 262 258 256 258 255 253 253 253 255 256 257 259 262 262 265 268 271 273 276 279 281 283 284 286 287 288 288 288 288 289 289 288
266 268 271 273 278 278 279 277 272 272 269 266 268 268 267 267 263 261 259 260 264 264 266 269 272 273 274 276 278 279 281 282 284 286 287 288 289 289 289 289 289 289 289
264 266 267 270 275 275 274 274 270 270 270 270 269 270 271 271 269 267 264 264 266 267 271 273 274 276 277 279 282 283 284 285 286 288 289 290 291 290 290 291 291 291 290
261 264 264 267 270 272 270 272 270 269 271 273 274 274 273 274 273 270 267 267 269 271 273 275 276 278 280 282 283 285 287 288 288 288 290 291 292 292 292 292 291 291 290
258 260 261 264 266 268 268 268 268 270 271 275 277 278 277 276 276 274 272 270 271 274 276 277 279 280 282 284 285 287 289 290 290 290 291 292 292 293 293 293 293 292 291
256 257 259 260 262 265 266 268 269 271 273 275 277 279 280 280 278 276 275 274 275 277 279 280 281 283 285 286 287 289 290 291 291 292 293 293 294 295 294 294 294 294 293
253 255 257 257 259 262 265 268 271 272 272 276 278 277 279 280 280 276 275 275 276 278 279 280 282 284 286 287 288 289 289 291 293 294 295 295 295 295 295 295 295 294 293
252 253 254 256 257 260 263 267 270 272 273 274 277 279 279 279 278 278 277 278 278 280 281 283 284 286 288 288 289 289 291 293 295 296 297 296 296 296 296 296 295 293 292
251 252 253 255 258 260 262 265 267 270 272 273 274 275 276 277 276 277 279 282 283 283 283 285 286 287 289 290 292 294 296 296 297 297 298 298 298 297 297 296 295 294 293
250 251 253 256 259 261 263 264 268 271 272 272 273 274 276 277 277 278 281 282 283 285 286 288 289 291 292 294 296 297 298 299 299 299 299 300 300 299 299 298 298 297 296
Height
5842 5839 5836 5834 5832 5831 5831 5831 5831 5831 5834 5837 5841 5844 5848 5851 5855 5858 5861 5864 5867 5869 5871 5873 5875 5876 5878 5879 5880 5881 5881 5882 5883 5884 5884 5884 5885 5885 5885 5886 5886 5886 5886
5840 5838 5835 5833 5831 5830 5830 5830 5830 5831 5832 5835 5839 5842 5846 5849 5853 5856 5859 5862 5865 5867 5870 5872 5873 5875 5877 5878 5879 5880 5881 5882 5882 5883 5884 5884 5885 5885 5885 5885 5886 5886 5886
5839 5837 5835 5832 5830 5829 5829 5828 5829 5829 5831 5834 5837 5840 5844 5847 5851 5854 5857 5861 5863 5866 5868 5870 5872 5874 5876 5877 5878 5879 5880 5881 5882 5882 5883 5884 5884 5884 5885 5885 5885 5885 5885
5837 5835 5833 5831 5830 5829 5828 5827 5828 5829 5830 5833 5836 5839 5842 5846 5849 5852 5855 5858 5861 5864 5866 5868 5870 5873 5874 5876 5877 5878 5879 5880 5881 5882 5882 5883 5883 5884 5884 5885 5884 5884 5884
5837 5835 5833 5830 5828 5827 5827 5826 5826 5827 5829 5831 5834 5837 5840 5844 5847 5850 5853 5856 5859 5862 5864 5866 5869 5871 5873 5874 5876 5877 5878 5879 5880 5880 5881 5881 5882 5882 5883 5883 5883 5883 5883
5836 5834 5832 5829 5827 5826 5825 5824 5825 5826 5827 5829 5831 5834 5838 5842 5845 5847 5851 5854 5857 5860 5862 5864 5867 5869 5871 5872 5874 5875 5876 5877 5878 5879 5879 5880 5880 5880 5881 5881 5881 5881 5881
5835 5833 5831 5829 5827 5825 5824 5823 5823 5824 5825 5827 5829 5832 5835 5839 5842 5845 5848 5852 5855 5858 5860 5862 5864 5866 5868 5870 5871 5873 5874 5875 5876 5877 5877 5877 5878 5878 5878 5878 5879 5879 5879
5834 5831 5829 5827 5825 5824 5823 5822 5822 5822 5823 5825 5827 5830 5833 5836 5840 5843 5846 5849 5852 5855 5857 5860 5862 5864 5866 5867 5869 5870 5871 5872 5873 5874 5874 5875 5875 5875 5875 5875 5875 5875 5875
5833 5831 5829 5826 5825 5823 5822 5822 5821 5821 5822 5823 5825 5827 5831 5834 5837 5841 5844 5847 5850 5852 5855 5857 5859 5861 5863 5865 5866 5867 5868 5869 5870 5871 5871 5871 5872 5872 5872 5872 5872 5872 5871
5832 5830 5828 5826 5825 5823 5822 5821 5821 5821 5821 5822 5824 5826 5829 5832 5835 5839 5842 5845 5847 5850 5852 5854 5856 5858 5860 5861 5863 5864 5865 5866 5867 5867 5867 5867 5867 5868 5867 5867 5867 5866 5866
5831 5829 5828 5826 5824 5823 5822 5821 5821 5821 5821 5822 5823 5825 5828 5831 5833 5837 5840 5842 5845 5847 5849 5851 5853 5855 5857 5858 5859 5860 5861 5862 5862 5863 5863 5863 5863 5862 5862 5862 5861 5861 5860
5830 5828 5827 5826 5825 5823 5823 5822 5821 5821 5821 5821 5823 5824 5827 5829 5832 5835 5837 5840 5842 5844 5846 5848 5850 5852 5853 5854 5855 5856 5857 5857 5857 5857 5857 5857 5857 5857 5856 5856 5855 5854 5853
5828 5827 5826 5825 5824 5823 5823 5822 5821 5821 5821 5822 5823 5824 5825 5828 5830 5832 5835 5837 5839 5841 5843 5845 5847 5848 5849 5850 5850 5851 5851 5852 5852 5852 5851 5851 5851 5850 5849 5849 5848 5847 5846
5826 5826 5825 5824 5823 5823 5822 5822 5821 5821 5821 5822 5822 5823 5825 5826 5828 5830 5832 5834 5836 5838 5839 5841 5842 5843 5844 5845 5845 5846 5846 5846 5846 5845 5845 5844 5844 5843 5842 5841 5839 5838 5837
5824 5823 5823 5823 5822 5821 5821 5821 5821 5821 5821 5821 5822 5823 5823 5825 5826 5828 5829 5831 5833 5834 5835 5837 5838 5839 5839 5839 5839 5840 5840 5840 5839 5838 5838 5837 5836 5835 5833 5832 5831 5829 5828
5821 5820 5820 5820 5820 5820 5820 5820 5820 5820 5820 5820 5821 5822 5822 5822 5824 5825 5826 5828 5829 5830 5831 5832 5832 5833 5834 5834 5834 5834 5834 5833 5832 5831 5830 5829 5828 5826 5824 5823 5821 5819 5817
5817 5817 5817 5817 5818 5818 5817 5817 5818 5818 5818 5819 5819 5819 5820 5820 5821 5822 5823 5824 5825 5826 5826 5827 5827 5828 5828 5828 5827 5827 5826 5826 5825 5823 5822 5821 5819 5817 5815 5813 5811 5808 5806
5811 5813 5813 5813 5814 5814 5814 5814 5815 5815 5815 5816 5816 5817 5817 5817 5818 5818 5819 5820 5820 5821 5822 5822 5822 5822 5822 5821 5821 5820 5819 5818 5816 5815 5814 5812 5809 5807 5805 5802 5800 5797 5794
5806 5808 5807 5809 5810 5810 5811 5811 5811 5811 5812 5812 5813 5813 5813 5814 5813 5814 5814 5814 5815 5816 5816 5816 5815 5815 5815 5814 5813 5812 5811 5809 5807 5806 5804 5801 5799 5796 5794 5791 5788 5785 5781
5800 5802 5803 5804 5806 5806 5806 5807 5807 5808 5808 5808 5808 5808 5809 5809 5808 5808 5808 5808 5809 5809 5809 5809 5808 5808 5807 5806 5805 5803 5802 5800 5798 5796 5794 5791 5788 5785 5781 5778 5775 5771 5767
5795 5797 5798 5799 5800 5801 5802 5802 5803 5803 5803 5804 5804 5804 5804 5804 5803 5803 5803 5803 5803 5803 5802 5802 5801 5800 5799 5798 5796 5794 5792 5790 5787 5785 5782 5779 5775 5772 5768 5764 5760 5756 5752
5788 5790 5792 5793 5794 5795 5796 5797 5797 5798 5798 5798 5798 5798 5798 5798 5798 5797 5797 5796 5796 5795 5795 5794 5793 5792 5791 5788 5786 5784 5781 5779 5776 5773 5769 5766 5762 5758 5754 5749 5745 5740 5735
5781 5783 5785 5786 5788 5789 5790 5791 5791 5791 5792 5792 5792 5791 5791 5791 5791 5790 5790 5789 5789 5788 5787 5786 5785 5783 5781 5779 5776 5774 5771 5768 5764 5760 5756 5752 5748 5743 5738 5733 5728 5723 5718
5773 5775 5777 5779 5781 5782 5783 5784 5784 5785 5785 5785 5785 5784 5784 5784 5784 5783 5782 5781 5780 5779 5778 5776 5775 5773 5771 5768 5765 5762 5759 5755 5751 5747 5742 5738 5733 5728 5722 5717 5712 5706 5701
5765 5768 5770 5771 5773 5775 5775 5776 5777 5777 5777 5777 5777 5777 5777 5776 5776 5775 5774 5773 5771 5770 5768 5766 5764 5762 5760 5756 5753 5749 5746 5742 5737 5732 5728 5723 5718 5712 5706 5700 5695 5689 5683
5758 5760 5763 5764 5766 5767 5768 5769 5769 5770 5770 5770 5770 5770 5769 5769 5768 5767 5765 5763 5762 5760 5758 5756 5754 5751 5748 5744 5741 5737 5733 5728 5723 5717 5712 5707 5701 5695 5689 5683 5677 5672 5666